Year,Month,Day,Hour,Minute,Value (Times are PST for temperature in C)
2012,05,07,00,00,9.10
2012,05,07,00,01,9.10
2012,05,07,00,02,9.10
2012,05,07,00,03,9.10
2012,05,07,00,04,9.00
2012,05,07,00,05,9.00
2012,05,07,00,06,8.90
2012,05,07,00,07,8.90
2012,05,07,00,08,8.80
2012,05,07,00,09,8.80
2012,05,07,00,10,8.70
2012,05,07,00,11,8.70
2012,05,07,00,12,8.60
2012,05,07,00,13,8.60
2012,05,07,00,14,8.50
2012,05,07,00,15,8.50
2012,05,07,00,16,8.60
2012,05,07,00,17,8.60
2012,05,07,00,18,8.70
2012,05,07,00,19,8.80
2012,05,07,00,20,8.90
2012,05,07,00,21,8.90
2012,05,07,00,22,9.00
2012,05,07,00,23,9.00
2012,05,07,00,24,9.00
2012,05,07,00,25,9.00
2012,05,07,00,26,9.00
2012,05,07,00,27,8.90
2012,05,07,00,28,8.90
2012,05,07,00,29,8.80
2012,05,07,00,30,8.80
2012,05,07,00,31,8.70
2012,05,07,00,32,8.70
2012,05,07,00,33,8.60
2012,05,07,00,34,8.60
2012,05,07,00,35,8.60
2012,05,07,00,36,8.60
2012,05,07,00,37,8.60
2012,05,07,00,38,8.60
2012,05,07,00,39,8.60
2012,05,07,00,40,8.60
2012,05,07,00,41,8.60
2012,05,07,00,42,8.50
2012,05,07,00,43,8.40
2012,05,07,00,44,8.40
2012,05,07,00,45,8.40
2012,05,07,00,46,8.30
2012,05,07,00,47,8.40
2012,05,07,00,48,8.40
2012,05,07,00,49,8.40
2012,05,07,00,50,8.50
2012,05,07,00,51,8.50
2012,05,07,00,52,8.60
2012,05,07,00,53,8.60
2012,05,07,00,54,8.60
2012,05,07,00,55,8.50
2012,05,07,00,56,8.50
2012,05,07,00,57,8.50
2012,05,07,00,58,8.40
2012,05,07,00,59,8.40
2012,05,07,01,00,8.50
2012,05,07,01,01,8.50
2012,05,07,01,02,8.50
2012,05,07,01,03,8.50
2012,05,07,01,04,8.50
2012,05,07,01,05,8.50
2012,05,07,01,06,8.50
2012,05,07,01,07,8.50
2012,05,07,01,08,8.50
2012,05,07,01,09,8.40
2012,05,07,01,10,8.40
2012,05,07,01,11,8.40
2012,05,07,01,12,8.40
2012,05,07,01,13,8.30
2012,05,07,01,14,8.30
2012,05,07,01,15,8.30
2012,05,07,01,16,8.30
2012,05,07,01,17,8.30
2012,05,07,01,18,8.30
2012,05,07,01,19,8.30
2012,05,07,01,20,8.30
2012,05,07,01,21,8.30
2012,05,07,01,22,8.30
2012,05,07,01,23,8.30
2012,05,07,01,24,8.30
2012,05,07,01,25,8.30
2012,05,07,01,26,8.30
2012,05,07,01,27,8.30
2012,05,07,01,28,8.30
2012,05,07,01,29,8.30
2012,05,07,01,30,8.30
2012,05,07,01,31,8.30
2012,05,07,01,32,8.30
2012,05,07,01,33,8.30
2012,05,07,01,34,8.30
2012,05,07,01,35,8.30
2012,05,07,01,36,8.30
2012,05,07,01,37,8.30
2012,05,07,01,38,8.30
2012,05,07,01,39,8.20
2012,05,07,01,40,8.20
2012,05,07,01,41,8.20
2012,05,07,01,42,8.20
2012,05,07,01,43,8.10
2012,05,07,01,44,8.10
2012,05,07,01,45,8.10
2012,05,07,01,46,8.10
2012,05,07,01,47,8.00
2012,05,07,01,48,8.00
2012,05,07,01,49,8.00
2012,05,07,01,50,7.90
2012,05,07,01,51,7.90
2012,05,07,01,52,7.90
2012,05,07,01,53,7.90
2012,05,07,01,54,7.90
2012,05,07,01,55,7.90
2012,05,07,01,56,7.90
2012,05,07,01,57,7.90
2012,05,07,01,58,7.90
2012,05,07,01,59,7.90
2012,05,07,02,00,7.90
2012,05,07,02,01,7.90
2012,05,07,02,02,7.90
2012,05,07,02,03,7.90
2012,05,07,02,04,7.90
2012,05,07,02,05,7.90
2012,05,07,02,06,7.80
2012,05,07,02,07,7.80
2012,05,07,02,08,7.80
2012,05,07,02,09,7.80
2012,05,07,02,10,7.80
2012,05,07,02,11,7.80
2012,05,07,02,12,7.80
2012,05,07,02,13,7.70
2012,05,07,02,14,7.70
2012,05,07,02,15,7.70
2012,05,07,02,16,7.70
2012,05,07,02,17,7.70
2012,05,07,02,18,7.70
2012,05,07,02,19,7.70
2012,05,07,02,20,7.80
2012,05,07,02,21,7.80
2012,05,07,02,22,7.80
2012,05,07,02,23,7.80
2012,05,07,02,24,7.90
2012,05,07,02,25,7.90
2012,05,07,02,26,7.90
2012,05,07,02,27,8.00
2012,05,07,02,28,8.00
2012,05,07,02,29,8.10
2012,05,07,02,30,8.10
2012,05,07,02,31,8.10
2012,05,07,02,32,8.10
2012,05,07,02,33,8.10
2012,05,07,02,34,8.10
2012,05,07,02,35,8.10
2012,05,07,02,36,8.10
2012,05,07,02,37,8.10
2012,05,07,02,38,8.10
2012,05,07,02,39,8.10
2012,05,07,02,40,8.10
2012,05,07,02,41,8.10
2012,05,07,02,42,8.10
2012,05,07,02,43,8.10
2012,05,07,02,44,8.10
2012,05,07,02,45,8.00
2012,05,07,02,46,8.00
2012,05,07,02,47,8.00
2012,05,07,02,48,8.00
2012,05,07,02,49,8.00
2012,05,07,02,50,8.10
2012,05,07,02,51,8.10
2012,05,07,02,52,8.10
2012,05,07,02,53,8.10
2012,05,07,02,54,8.20
2012,05,07,02,55,8.20
2012,05,07,02,56,8.20
2012,05,07,02,57,8.20
2012,05,07,02,58,8.20
2012,05,07,02,59,8.20
2012,05,07,03,00,8.10
2012,05,07,03,01,8.20
2012,05,07,03,02,8.10
2012,05,07,03,03,8.10
2012,05,07,03,04,8.10
2012,05,07,03,05,8.10
2012,05,07,03,06,8.10
2012,05,07,03,07,8.10
2012,05,07,03,08,8.10
2012,05,07,03,09,8.10
2012,05,07,03,10,8.10
2012,05,07,03,11,8.20
2012,05,07,03,12,8.20
2012,05,07,03,13,8.20
2012,05,07,03,14,8.20
2012,05,07,03,15,8.20
2012,05,07,03,16,8.30
2012,05,07,03,17,8.30
2012,05,07,03,18,8.30
2012,05,07,03,19,8.30
2012,05,07,03,20,8.30
2012,05,07,03,21,8.30
2012,05,07,03,22,8.30
2012,05,07,03,23,8.30
2012,05,07,03,24,8.30
2012,05,07,03,25,8.30
2012,05,07,03,26,8.30
2012,05,07,03,27,8.30
2012,05,07,03,28,8.30
2012,05,07,03,29,8.30
2012,05,07,03,30,8.20
2012,05,07,03,31,8.20
2012,05,07,03,32,8.20
2012,05,07,03,33,8.20
2012,05,07,03,34,8.20
2012,05,07,03,35,8.20
2012,05,07,03,36,8.20
2012,05,07,03,37,8.20
2012,05,07,03,38,8.20
2012,05,07,03,39,8.20
2012,05,07,03,40,8.20
2012,05,07,03,41,8.20
2012,05,07,03,42,8.10
2012,05,07,03,43,8.10
2012,05,07,03,44,8.10
2012,05,07,03,45,8.10
2012,05,07,03,46,8.10
2012,05,07,03,47,8.10
2012,05,07,03,48,8.10
2012,05,07,03,49,8.20
2012,05,07,03,50,8.20
2012,05,07,03,51,8.20
2012,05,07,03,52,8.20
2012,05,07,03,53,8.20
2012,05,07,03,54,8.20
2012,05,07,03,55,8.20
2012,05,07,03,56,8.20
2012,05,07,03,57,8.20
2012,05,07,03,58,8.20
2012,05,07,03,59,8.20
2012,05,07,04,00,8.30
2012,05,07,04,01,8.30
2012,05,07,04,02,8.20
2012,05,07,04,03,8.20
2012,05,07,04,04,8.20
2012,05,07,04,05,8.20
2012,05,07,04,06,8.20
2012,05,07,04,07,8.20
2012,05,07,04,08,8.20
2012,05,07,04,09,8.20
2012,05,07,04,10,8.20
2012,05,07,04,11,8.10
2012,05,07,04,12,8.10
2012,05,07,04,13,8.10
2012,05,07,04,14,8.10
2012,05,07,04,15,8.10
2012,05,07,04,16,8.20
2012,05,07,04,17,8.20
2012,05,07,04,18,8.20
2012,05,07,04,19,8.20
2012,05,07,04,20,8.20
2012,05,07,04,21,8.20
2012,05,07,04,22,8.20
2012,05,07,04,23,8.20
2012,05,07,04,24,8.10
2012,05,07,04,25,8.10
2012,05,07,04,26,8.10
2012,05,07,04,27,8.10
2012,05,07,04,28,8.10
2012,05,07,04,29,8.10
2012,05,07,04,30,8.10
2012,05,07,04,31,8.10
2012,05,07,04,32,8.00
2012,05,07,04,33,8.00
2012,05,07,04,34,8.00
2012,05,07,04,35,7.90
2012,05,07,04,36,7.90
2012,05,07,04,37,7.90
2012,05,07,04,38,7.90
2012,05,07,04,39,7.80
2012,05,07,04,40,7.80
2012,05,07,04,41,7.80
2012,05,07,04,42,7.80
2012,05,07,04,43,7.80
2012,05,07,04,44,7.80
2012,05,07,04,45,7.80
2012,05,07,04,46,7.80
2012,05,07,04,47,7.80
2012,05,07,04,48,7.80
2012,05,07,04,49,7.80
2012,05,07,04,50,7.80
2012,05,07,04,51,7.80
2012,05,07,04,52,7.80
2012,05,07,04,53,7.80
2012,05,07,04,54,7.90
2012,05,07,04,55,7.90
2012,05,07,04,56,7.90
2012,05,07,04,57,7.90
2012,05,07,04,58,7.90
2012,05,07,04,59,7.90
2012,05,07,05,00,8.00
2012,05,07,05,01,7.90
2012,05,07,05,02,8.00
2012,05,07,05,03,8.00
2012,05,07,05,04,7.90
2012,05,07,05,05,7.90
2012,05,07,05,06,8.00
2012,05,07,05,07,7.90
2012,05,07,05,08,7.90
2012,05,07,05,09,7.90
2012,05,07,05,10,7.90
2012,05,07,05,11,7.90
2012,05,07,05,12,7.90
2012,05,07,05,13,7.90
2012,05,07,05,14,7.90
2012,05,07,05,15,7.90
2012,05,07,05,16,7.90
2012,05,07,05,17,7.90
2012,05,07,05,18,7.90
2012,05,07,05,19,7.90
2012,05,07,05,20,7.90
2012,05,07,05,21,7.90
2012,05,07,05,22,7.90
2012,05,07,05,23,7.90
2012,05,07,05,24,7.90
2012,05,07,05,25,7.90
2012,05,07,05,26,7.90
2012,05,07,05,27,8.00
2012,05,07,05,28,8.00
2012,05,07,05,29,8.00
2012,05,07,05,30,8.00
2012,05,07,05,31,8.00
2012,05,07,05,32,8.00
2012,05,07,05,33,8.00
2012,05,07,05,34,8.00
2012,05,07,05,35,7.90
2012,05,07,05,36,7.90
2012,05,07,05,37,7.90
2012,05,07,05,38,7.90
2012,05,07,05,39,7.90
2012,05,07,05,40,7.90
2012,05,07,05,41,8.00
2012,05,07,05,42,8.00
2012,05,07,05,43,8.00
2012,05,07,05,44,8.00
2012,05,07,05,45,8.00
2012,05,07,05,46,8.00
2012,05,07,05,47,8.10
2012,05,07,05,48,8.10
2012,05,07,05,49,8.10
2012,05,07,05,50,8.10
2012,05,07,05,51,8.10
2012,05,07,05,52,8.10
2012,05,07,05,53,8.10
2012,05,07,05,54,8.10
2012,05,07,05,55,8.10
2012,05,07,05,56,8.10
2012,05,07,05,57,8.10
2012,05,07,05,58,8.10
2012,05,07,05,59,8.10
2012,05,07,06,00,8.10
2012,05,07,06,01,8.10
2012,05,07,06,02,8.10
2012,05,07,06,03,8.10
2012,05,07,06,04,8.10
2012,05,07,06,05,8.10
2012,05,07,06,06,8.20
2012,05,07,06,07,8.20
2012,05,07,06,08,8.20
2012,05,07,06,09,8.20
2012,05,07,06,10,8.20
2012,05,07,06,11,8.20
2012,05,07,06,12,8.20
2012,05,07,06,13,8.20
2012,05,07,06,14,8.20
2012,05,07,06,15,8.20
2012,05,07,06,16,8.20
2012,05,07,06,17,8.20
2012,05,07,06,18,8.20
2012,05,07,06,19,8.20
2012,05,07,06,20,8.20
2012,05,07,06,21,8.30
2012,05,07,06,22,8.30
2012,05,07,06,23,8.30
2012,05,07,06,24,8.30
2012,05,07,06,25,8.30
2012,05,07,06,26,8.30
2012,05,07,06,27,8.30
2012,05,07,06,28,8.30
2012,05,07,06,29,8.30
2012,05,07,06,30,8.30
2012,05,07,06,31,8.30
2012,05,07,06,32,8.30
2012,05,07,06,33,8.30
2012,05,07,06,34,8.30
2012,05,07,06,35,8.40
2012,05,07,06,36,8.40
2012,05,07,06,37,8.50
2012,05,07,06,38,8.50
2012,05,07,06,39,8.60
2012,05,07,06,40,8.60
2012,05,07,06,41,8.60
2012,05,07,06,42,8.60
2012,05,07,06,43,8.70
2012,05,07,06,44,8.70
2012,05,07,06,45,8.70
2012,05,07,06,46,8.70
2012,05,07,06,47,8.70
2012,05,07,06,48,8.80
2012,05,07,06,49,8.80
2012,05,07,06,50,8.80
2012,05,07,06,51,8.80
2012,05,07,06,52,8.80
2012,05,07,06,53,8.80
2012,05,07,06,54,8.80
2012,05,07,06,55,8.90
2012,05,07,06,56,8.90
2012,05,07,06,57,9.00
2012,05,07,06,58,9.00
2012,05,07,06,59,9.00
2012,05,07,07,00,9.00
2012,05,07,07,01,8.90
2012,05,07,07,02,8.90
2012,05,07,07,03,8.90
2012,05,07,07,04,8.90
2012,05,07,07,05,8.90
2012,05,07,07,06,9.00
2012,05,07,07,07,9.00
2012,05,07,07,08,9.10
2012,05,07,07,09,9.10
2012,05,07,07,10,9.20
2012,05,07,07,11,9.20
2012,05,07,07,12,9.30
2012,05,07,07,13,9.30
2012,05,07,07,14,9.40
2012,05,07,07,15,9.40
2012,05,07,07,16,9.50
2012,05,07,07,17,9.60
2012,05,07,07,18,9.60
2012,05,07,07,19,9.60
2012,05,07,07,20,9.70
2012,05,07,07,21,9.70
2012,05,07,07,22,9.80
2012,05,07,07,23,9.80
2012,05,07,07,24,9.90
2012,05,07,07,25,9.90
2012,05,07,07,26,9.90
2012,05,07,07,27,9.90
2012,05,07,07,28,9.90
2012,05,07,07,29,9.90
2012,05,07,07,30,9.80
2012,05,07,07,31,9.80
2012,05,07,07,32,9.80
2012,05,07,07,33,9.80
2012,05,07,07,34,9.80
2012,05,07,07,35,9.80
2012,05,07,07,36,9.80
2012,05,07,07,37,9.80
2012,05,07,07,38,9.70
2012,05,07,07,39,9.70
2012,05,07,07,40,9.70
2012,05,07,07,41,9.70
2012,05,07,07,42,9.70
2012,05,07,07,43,9.70
2012,05,07,07,44,9.70
2012,05,07,07,45,9.70
2012,05,07,07,46,9.70
2012,05,07,07,47,9.70
2012,05,07,07,48,9.70
2012,05,07,07,49,9.70
2012,05,07,07,50,9.70
2012,05,07,07,51,9.80
2012,05,07,07,52,9.80
2012,05,07,07,53,9.90
2012,05,07,07,54,10.00
2012,05,07,07,55,10.00
2012,05,07,07,56,10.10
2012,05,07,07,57,10.20
2012,05,07,07,58,10.30
2012,05,07,07,59,10.30
2012,05,07,08,00,10.40
2012,05,07,08,01,10.50
2012,05,07,08,02,10.60
2012,05,07,08,03,10.60
2012,05,07,08,04,10.60
2012,05,07,08,05,10.70
2012,05,07,08,06,10.70
2012,05,07,08,07,10.70
2012,05,07,08,08,10.80
2012,05,07,08,09,10.80
2012,05,07,08,10,10.80
2012,05,07,08,11,10.90
2012,05,07,08,12,10.90
2012,05,07,08,13,10.90
2012,05,07,08,14,11.00
2012,05,07,08,15,11.00
2012,05,07,08,16,11.10
2012,05,07,08,17,11.20
2012,05,07,08,18,11.20
2012,05,07,08,19,11.20
2012,05,07,08,20,11.30
2012,05,07,08,21,11.30
2012,05,07,08,22,11.30
2012,05,07,08,23,11.30
2012,05,07,08,24,11.30
2012,05,07,08,25,11.30
2012,05,07,08,26,11.30
2012,05,07,08,27,11.20
2012,05,07,08,28,11.10
2012,05,07,08,29,11.00
2012,05,07,08,30,11.00
2012,05,07,08,31,10.90
2012,05,07,08,32,10.90
2012,05,07,08,33,10.90
2012,05,07,08,34,10.90
2012,05,07,08,35,10.90
2012,05,07,08,36,10.90
2012,05,07,08,37,11.00
2012,05,07,08,38,11.00
2012,05,07,08,39,11.00
2012,05,07,08,40,11.10
2012,05,07,08,41,11.20
2012,05,07,08,42,11.20
2012,05,07,08,43,11.20
2012,05,07,08,44,11.20
2012,05,07,08,45,11.20
2012,05,07,08,46,11.20
2012,05,07,08,47,11.20
2012,05,07,08,48,11.20
2012,05,07,08,49,11.20
2012,05,07,08,50,11.30
2012,05,07,08,51,11.40
2012,05,07,08,52,11.50
2012,05,07,08,53,11.60
2012,05,07,08,54,11.70
2012,05,07,08,55,11.90
2012,05,07,08,56,12.00
2012,05,07,08,57,12.10
2012,05,07,08,58,12.20
2012,05,07,08,59,12.30
2012,05,07,09,00,12.30
2012,05,07,09,01,12.30
2012,05,07,09,02,12.50
2012,05,07,09,03,12.50
2012,05,07,09,04,12.60
2012,05,07,09,05,12.50
2012,05,07,09,06,12.50
2012,05,07,09,07,12.50
2012,05,07,09,08,12.50
2012,05,07,09,09,12.60
2012,05,07,09,10,12.60
2012,05,07,09,11,12.60
2012,05,07,09,12,12.60
2012,05,07,09,13,12.50
2012,05,07,09,14,12.30
2012,05,07,09,15,12.30
2012,05,07,09,16,12.20
2012,05,07,09,17,12.10
2012,05,07,09,18,12.00
2012,05,07,09,19,11.90
2012,05,07,09,20,11.90
2012,05,07,09,21,11.90
2012,05,07,09,22,11.90
2012,05,07,09,23,12.10
2012,05,07,09,24,12.10
2012,05,07,09,25,12.20
2012,05,07,09,26,12.30
2012,05,07,09,27,12.40
2012,05,07,09,28,12.50
2012,05,07,09,29,12.50
2012,05,07,09,30,12.50
2012,05,07,09,31,12.50
2012,05,07,09,32,12.60
2012,05,07,09,33,12.60
2012,05,07,09,34,12.70
2012,05,07,09,35,12.70
2012,05,07,09,36,12.70
2012,05,07,09,37,12.70
2012,05,07,09,38,12.70
2012,05,07,09,39,12.70
2012,05,07,09,40,12.70
2012,05,07,09,41,12.70
2012,05,07,09,42,12.70
2012,05,07,09,43,12.70
2012,05,07,09,44,12.60
2012,05,07,09,45,12.60
2012,05,07,09,46,12.60
2012,05,07,09,47,12.60
2012,05,07,09,48,12.60
2012,05,07,09,49,12.50
2012,05,07,09,50,12.50
2012,05,07,09,51,12.40
2012,05,07,09,52,12.40
2012,05,07,09,53,12.40
2012,05,07,09,54,12.30
2012,05,07,09,55,12.40
2012,05,07,09,56,12.40
2012,05,07,09,57,12.60
2012,05,07,09,58,12.60
2012,05,07,09,59,12.70
2012,05,07,10,00,12.80
2012,05,07,10,01,12.80
2012,05,07,10,02,12.90
2012,05,07,10,03,12.80
2012,05,07,10,04,12.70
2012,05,07,10,05,12.60
2012,05,07,10,06,12.60
2012,05,07,10,07,12.50
2012,05,07,10,08,12.50
2012,05,07,10,09,12.60
2012,05,07,10,10,12.60
2012,05,07,10,11,12.70
2012,05,07,10,12,12.80
2012,05,07,10,13,12.80
2012,05,07,10,14,12.80
2012,05,07,10,15,12.80
2012,05,07,10,16,12.80
2012,05,07,10,17,12.70
2012,05,07,10,18,12.70
2012,05,07,10,19,12.60
2012,05,07,10,20,12.50
2012,05,07,10,21,12.60
2012,05,07,10,22,12.50
2012,05,07,10,23,12.50
2012,05,07,10,24,12.50
2012,05,07,10,25,12.50
2012,05,07,10,26,12.60
2012,05,07,10,27,12.60
2012,05,07,10,28,12.60
2012,05,07,10,29,12.70
2012,05,07,10,30,12.70
2012,05,07,10,31,12.70
2012,05,07,10,32,12.70
2012,05,07,10,33,12.70
2012,05,07,10,34,12.70
2012,05,07,10,35,12.70
2012,05,07,10,36,12.80
2012,05,07,10,37,12.80
2012,05,07,10,38,12.90
2012,05,07,10,39,12.90
2012,05,07,10,40,12.90
2012,05,07,10,41,12.90
2012,05,07,10,42,12.90
2012,05,07,10,43,12.90
2012,05,07,10,44,12.80
2012,05,07,10,45,12.70
2012,05,07,10,46,12.70
2012,05,07,10,47,12.70
2012,05,07,10,48,12.70
2012,05,07,10,49,12.70
2012,05,07,10,50,12.80
2012,05,07,10,51,12.80
2012,05,07,10,52,12.80
2012,05,07,10,53,12.80
2012,05,07,10,54,12.80
2012,05,07,10,55,12.70
2012,05,07,10,56,12.70
2012,05,07,10,57,12.70
2012,05,07,10,58,12.80
2012,05,07,10,59,12.80
2012,05,07,11,00,12.70
2012,05,07,11,01,12.80
2012,05,07,11,02,12.70
2012,05,07,11,03,12.70
2012,05,07,11,04,12.60
2012,05,07,11,05,12.70
2012,05,07,11,06,12.80
2012,05,07,11,07,12.80
2012,05,07,11,08,12.80
2012,05,07,11,09,12.80
2012,05,07,11,10,13.00
2012,05,07,11,11,13.10
2012,05,07,11,12,13.20
2012,05,07,11,13,13.20
2012,05,07,11,14,13.30
2012,05,07,11,15,13.30
2012,05,07,11,16,13.40
2012,05,07,11,17,13.40
2012,05,07,11,18,13.30
2012,05,07,11,19,13.30
2012,05,07,11,20,13.30
2012,05,07,11,21,13.30
2012,05,07,11,22,13.30
2012,05,07,11,23,13.30
2012,05,07,11,24,13.30
2012,05,07,11,25,13.50
2012,05,07,11,26,13.60
2012,05,07,11,27,13.60
2012,05,07,11,28,13.50
2012,05,07,11,29,13.50
2012,05,07,11,30,13.60
2012,05,07,11,31,13.60
2012,05,07,11,32,13.60
2012,05,07,11,33,13.60
2012,05,07,11,34,13.60
2012,05,07,11,35,13.60
2012,05,07,11,36,13.50
2012,05,07,11,37,13.50
2012,05,07,11,38,13.50
2012,05,07,11,39,13.50
2012,05,07,11,40,13.50
2012,05,07,11,41,13.60
2012,05,07,11,42,13.60
2012,05,07,11,43,13.60
2012,05,07,11,44,13.50
2012,05,07,11,45,13.50
2012,05,07,11,46,13.50
2012,05,07,11,47,13.50
2012,05,07,11,48,13.50
2012,05,07,11,49,13.60
2012,05,07,11,50,13.70
2012,05,07,11,51,13.90
2012,05,07,11,52,14.00
2012,05,07,11,53,14.20
2012,05,07,11,54,14.40
2012,05,07,11,55,14.50
2012,05,07,11,56,14.50
2012,05,07,11,57,14.40
2012,05,07,11,58,14.30
2012,05,07,11,59,14.20
2012,05,07,12,00,14.30
2012,05,07,12,01,14.40
2012,05,07,12,02,14.50
2012,05,07,12,03,14.50
2012,05,07,12,04,14.60
2012,05,07,12,05,14.50
2012,05,07,12,06,14.40
2012,05,07,12,07,14.40
2012,05,07,12,08,14.20
2012,05,07,12,09,14.10
2012,05,07,12,10,14.00
2012,05,07,12,11,14.00
2012,05,07,12,12,14.10
2012,05,07,12,13,14.20
2012,05,07,12,14,14.40
2012,05,07,12,15,14.60
2012,05,07,12,16,14.80
2012,05,07,12,17,14.80
2012,05,07,12,18,14.70
2012,05,07,12,19,14.60
2012,05,07,12,20,14.50
2012,05,07,12,21,14.30
2012,05,07,12,22,14.30
2012,05,07,12,23,14.30
2012,05,07,12,24,14.30
2012,05,07,12,25,14.40
2012,05,07,12,26,14.40
2012,05,07,12,27,14.30
2012,05,07,12,28,14.30
2012,05,07,12,29,14.20
2012,05,07,12,30,14.20
2012,05,07,12,31,14.30
2012,05,07,12,32,14.30
2012,05,07,12,33,14.40
2012,05,07,12,34,14.60
2012,05,07,12,35,14.70
2012,05,07,12,36,14.70
2012,05,07,12,37,14.60
2012,05,07,12,38,14.60
2012,05,07,12,39,14.70
2012,05,07,12,40,14.70
2012,05,07,12,41,14.70
2012,05,07,12,42,14.70
2012,05,07,12,43,14.70
2012,05,07,12,44,14.70
2012,05,07,12,45,14.40
2012,05,07,12,46,14.40
2012,05,07,12,47,14.40
2012,05,07,12,48,14.30
2012,05,07,12,49,14.40
2012,05,07,12,50,14.40
2012,05,07,12,51,14.40
2012,05,07,12,52,14.40
2012,05,07,12,53,14.40
2012,05,07,12,54,14.40
2012,05,07,12,55,14.40
2012,05,07,12,56,14.40
2012,05,07,12,57,14.60
2012,05,07,12,58,14.80
2012,05,07,12,59,15.00
2012,05,07,13,00,15.00
2012,05,07,13,01,15.00
2012,05,07,13,02,15.00
2012,05,07,13,03,15.00
2012,05,07,13,04,15.00
2012,05,07,13,05,15.00
2012,05,07,13,06,15.00
2012,05,07,13,07,15.00
2012,05,07,13,08,15.00
2012,05,07,13,09,15.00
2012,05,07,13,10,15.00
2012,05,07,13,11,15.00
2012,05,07,13,12,15.10
2012,05,07,13,13,15.30
2012,05,07,13,14,15.30
2012,05,07,13,15,15.20
2012,05,07,13,16,15.20
2012,05,07,13,17,15.30
2012,05,07,13,18,15.30
2012,05,07,13,19,15.30
2012,05,07,13,20,15.30
2012,05,07,13,21,15.30
2012,05,07,13,22,15.20
2012,05,07,13,23,15.20
2012,05,07,13,24,15.20
2012,05,07,13,25,15.30
2012,05,07,13,26,15.40
2012,05,07,13,27,15.40
2012,05,07,13,28,15.50
2012,05,07,13,29,15.40
2012,05,07,13,30,15.40
2012,05,07,13,31,15.40
2012,05,07,13,32,15.40
2012,05,07,13,33,15.30
2012,05,07,13,34,15.30
2012,05,07,13,35,15.40
2012,05,07,13,36,15.60
2012,05,07,13,37,15.70
2012,05,07,13,38,15.70
2012,05,07,13,39,15.80
2012,05,07,13,40,15.80
2012,05,07,13,41,15.70
2012,05,07,13,42,15.80
2012,05,07,13,43,15.90
2012,05,07,13,44,15.90
2012,05,07,13,45,15.90
2012,05,07,13,46,15.80
2012,05,07,13,47,15.70
2012,05,07,13,48,15.60
2012,05,07,13,49,15.60
2012,05,07,13,50,15.60
2012,05,07,13,51,15.70
2012,05,07,13,52,15.90
2012,05,07,13,53,15.80
2012,05,07,13,54,15.90
2012,05,07,13,55,15.90
2012,05,07,13,56,16.00
2012,05,07,13,57,16.10
2012,05,07,13,58,16.00
2012,05,07,13,59,16.00
2012,05,07,14,00,16.10
2012,05,07,14,01,16.10
2012,05,07,14,02,16.10
2012,05,07,14,03,16.00
2012,05,07,14,04,15.90
2012,05,07,14,05,16.00
2012,05,07,14,06,16.10
2012,05,07,14,07,16.20
2012,05,07,14,08,16.30
2012,05,07,14,09,16.30
2012,05,07,14,10,16.20
2012,05,07,14,11,16.20
2012,05,07,14,12,16.20
2012,05,07,14,13,16.30
2012,05,07,14,14,16.30
2012,05,07,14,15,16.30
2012,05,07,14,16,16.30
2012,05,07,14,17,16.20
2012,05,07,14,18,16.20
2012,05,07,14,19,16.20
2012,05,07,14,20,16.20
2012,05,07,14,21,16.20
2012,05,07,14,22,16.20
2012,05,07,14,23,16.20
2012,05,07,14,24,16.20
2012,05,07,14,25,16.30
2012,05,07,14,26,16.30
2012,05,07,14,27,16.40
2012,05,07,14,28,16.50
2012,05,07,14,29,16.60
2012,05,07,14,30,16.60
2012,05,07,14,31,16.60
2012,05,07,14,32,16.50
2012,05,07,14,33,16.40
2012,05,07,14,34,16.30
2012,05,07,14,35,16.20
2012,05,07,14,36,16.20
2012,05,07,14,37,16.20
2012,05,07,14,38,16.20
2012,05,07,14,39,16.30
2012,05,07,14,40,16.30
2012,05,07,14,41,16.20
2012,05,07,14,42,16.20
2012,05,07,14,43,16.10
2012,05,07,14,44,16.10
2012,05,07,14,45,16.10
2012,05,07,14,46,16.10
2012,05,07,14,47,16.10
2012,05,07,14,48,16.20
2012,05,07,14,49,16.30
2012,05,07,14,50,16.30
2012,05,07,14,51,16.20
2012,05,07,14,52,16.20
2012,05,07,14,53,16.20
2012,05,07,14,54,16.20
2012,05,07,14,55,16.30
2012,05,07,14,56,16.40
2012,05,07,14,57,16.30
2012,05,07,14,58,16.30
2012,05,07,14,59,16.30
2012,05,07,15,00,16.40
2012,05,07,15,01,16.50
2012,05,07,15,02,16.60
2012,05,07,15,03,16.60
2012,05,07,15,04,16.60
2012,05,07,15,05,16.50
2012,05,07,15,06,16.50
2012,05,07,15,07,16.40
2012,05,07,15,08,16.40
2012,05,07,15,09,16.40
2012,05,07,15,10,16.40
2012,05,07,15,11,16.40
2012,05,07,15,12,16.40
2012,05,07,15,13,16.50
2012,05,07,15,14,16.50
2012,05,07,15,15,16.40
2012,05,07,15,16,16.40
2012,05,07,15,17,16.40
2012,05,07,15,18,16.30
2012,05,07,15,19,16.30
2012,05,07,15,20,16.30
2012,05,07,15,21,16.30
2012,05,07,15,22,16.30
2012,05,07,15,23,16.30
2012,05,07,15,24,16.30
2012,05,07,15,25,16.40
2012,05,07,15,26,16.40
2012,05,07,15,27,16.50
2012,05,07,15,28,16.50
2012,05,07,15,29,16.50
2012,05,07,15,30,16.50
2012,05,07,15,31,16.60
2012,05,07,15,32,16.60
2012,05,07,15,33,16.70
2012,05,07,15,34,16.60
2012,05,07,15,35,16.50
2012,05,07,15,36,16.50
2012,05,07,15,37,16.50
2012,05,07,15,38,16.60
2012,05,07,15,39,16.70
2012,05,07,15,40,16.80
2012,05,07,15,41,16.80
2012,05,07,15,42,16.90
2012,05,07,15,43,16.90
2012,05,07,15,44,16.90
2012,05,07,15,45,16.80
2012,05,07,15,46,16.70
2012,05,07,15,47,16.60
2012,05,07,15,48,16.70
2012,05,07,15,49,16.70
2012,05,07,15,50,16.70
2012,05,07,15,51,16.80
2012,05,07,15,52,16.80
2012,05,07,15,53,16.80
2012,05,07,15,54,16.80
2012,05,07,15,55,16.80
2012,05,07,15,56,16.80
2012,05,07,15,57,16.80
2012,05,07,15,58,16.70
2012,05,07,15,59,16.70
2012,05,07,16,00,16.70
2012,05,07,16,01,16.70
2012,05,07,16,02,16.70
2012,05,07,16,03,16.70
2012,05,07,16,04,16.70
2012,05,07,16,05,16.80
2012,05,07,16,06,16.80
2012,05,07,16,07,16.80
2012,05,07,16,08,16.80
2012,05,07,16,09,16.70
2012,05,07,16,10,16.70
2012,05,07,16,11,16.80
2012,05,07,16,12,16.80
2012,05,07,16,13,16.80
2012,05,07,16,14,16.90
2012,05,07,16,15,16.90
2012,05,07,16,16,16.90
2012,05,07,16,17,17.00
2012,05,07,16,18,17.10
2012,05,07,16,19,17.10
2012,05,07,16,20,17.10
2012,05,07,16,21,17.10
2012,05,07,16,22,17.20
2012,05,07,16,23,17.20
2012,05,07,16,24,17.20
2012,05,07,16,25,17.20
2012,05,07,16,26,17.30
2012,05,07,16,27,17.40
2012,05,07,16,28,17.50
2012,05,07,16,29,17.60
2012,05,07,16,30,17.60
2012,05,07,16,31,17.60
2012,05,07,16,32,17.50
2012,05,07,16,33,17.50
2012,05,07,16,34,17.50
2012,05,07,16,35,17.50
2012,05,07,16,36,17.60
2012,05,07,16,37,17.70
2012,05,07,16,38,17.80
2012,05,07,16,39,17.90
2012,05,07,16,40,17.90
2012,05,07,16,41,17.80
2012,05,07,16,42,17.60
2012,05,07,16,43,17.50
2012,05,07,16,44,17.40
2012,05,07,16,45,17.40
2012,05,07,16,46,17.40
2012,05,07,16,47,17.40
2012,05,07,16,48,17.40
2012,05,07,16,49,17.50
2012,05,07,16,50,17.40
2012,05,07,16,51,17.40
2012,05,07,16,52,17.30
2012,05,07,16,53,17.30
2012,05,07,16,54,17.20
2012,05,07,16,55,17.20
2012,05,07,16,56,17.20
2012,05,07,16,57,17.30
2012,05,07,16,58,17.20
2012,05,07,16,59,17.20
2012,05,07,17,00,17.30
2012,05,07,17,01,17.40
2012,05,07,17,02,17.50
2012,05,07,17,03,17.60
2012,05,07,17,04,17.70
2012,05,07,17,05,17.50
2012,05,07,17,06,17.40
2012,05,07,17,07,17.40
2012,05,07,17,08,17.40
2012,05,07,17,09,17.40
2012,05,07,17,10,17.30
2012,05,07,17,11,17.30
2012,05,07,17,12,17.30
2012,05,07,17,13,17.30
2012,05,07,17,14,17.30
2012,05,07,17,15,17.20
2012,05,07,17,16,17.20
2012,05,07,17,17,17.20
2012,05,07,17,18,17.20
2012,05,07,17,19,17.10
2012,05,07,17,20,17.10
2012,05,07,17,21,17.10
2012,05,07,17,22,17.20
2012,05,07,17,23,17.20
2012,05,07,17,24,17.20
2012,05,07,17,25,17.10
2012,05,07,17,26,17.10
2012,05,07,17,27,17.10
2012,05,07,17,28,17.10
2012,05,07,17,29,17.10
2012,05,07,17,30,17.00
2012,05,07,17,31,17.00
2012,05,07,17,32,17.00
2012,05,07,17,33,17.10
2012,05,07,17,34,17.10
2012,05,07,17,35,17.20
2012,05,07,17,36,17.20
2012,05,07,17,37,17.30
2012,05,07,17,38,17.30
2012,05,07,17,39,17.20
2012,05,07,17,40,17.20